This demonstration page uses our WeatherBlox Daily Observations layout. Learn more.

38.89511, -77.03637

Hourly Observations for April 2, 2015

Temp ( °F °C ) Dew Point ( °F °C ) Humidity (%) Winds ( mph kmh ) Pressure ( in mb ) Visibility ( mi km ) Precip ( " mm )
12:52 am 00:52 Clear 47 8.3 31 -0.6 54 54 S 6 9 30.26 1025 10 16.0934 0 0
1:52 am 01:52 Clear 47 8.3 32 0 56 56 S 8 13 30.25 1025 10 16.0934 0 0
2:52 am 02:52 Clear 45 7.2 33 0.6 63 63 S 7 11 30.26 1025 10 16.0934 0 0
3:52 am 03:52 Mostly Clear 44 6.7 32 0 63 63 S 8 13 30.25 1025 10 16.0934 0 0
4:52 am 04:52 Clear 43 6.1 31 -0.6 63 63 S 6 9 30.26 1025 10 16.0934 0 0
5:52 am 05:52 Clear 43 6.1 31 -0.6 63 63 S 8 13 30.26 1025 10 16.0934 0 0
6:52 am 06:52 Mostly Sunny 42 5.6 32 0 68 68 SSW 7 11 30.28 1025 10 16.0934 0 0
7:52 am 07:52 Partly Cloudy 46 7.8 33 0.6 61 61 S 10 17 30.29 1026 10 16.0934 0 0
8:52 am 08:52 Partly Cloudy 50 10 32 0 50 50 S 16 26 30.27 1025 10 16.0934 0 0
9:52 am 09:52 Mostly Cloudy 56 13.3 32 0 40 40 S 16 26 30.27 1025 10 16.0934 0 0
10:52 am 10:52 Cloudy 60 15.6 32 0 35 35 SSW 22 35 30.23 1024 10 16.0934 0 0
11:52 am 11:52 Cloudy 63 17.2 32 0 31 31 SSW 24 39 30.2 1023 10 16.0934 0 0
12:52 pm 12:52 Cloudy 67 19.4 35 1.7 31 31 SSW 23 37 30.17 1022 10 16.0934 0 0
1:52 pm 13:52 Cloudy 69 20.6 36 2.2 30 30 SSW 25 41 30.14 1021 10 16.0934 0 0
2:52 pm 14:52 Mostly Cloudy 70 21.1 38 3.3 31 31 S 24 39 30.1 1019 10 16.0934 0 0
3:52 pm 15:52 Mostly Cloudy 73 22.8 38 3.3 28 28 S 24 39 30.05 1018 10 16.0934 0 0
4:52 pm 16:52 Mostly Cloudy 72 22.2 38 3.3 29 29 SSW 22 35 30.02 1017 10 16.0934 0 0
5:52 pm 17:52 Mostly Cloudy 73 22.8 39 3.9 29 29 SSW 21 33 30.01 1016 10 16.0934 0 0
6:52 pm 18:52 Mostly Cloudy 71 21.7 39 3.9 31 31 S 16 26 29.99 1016 10 16.0934 0 0
7:52 pm 19:52 Mostly Cloudy 69 20.6 40 4.4 35 35 S 13 20 29.97 1015 10 16.0934 0 0
8:25 pm 20:25 Mostly Cloudy 64 18 43 6 46 46 S 13 20 29.97 1015 10 16.0934 0 0
8:52 pm 20:52 Cloudy 70 21.1 39 3.9 32 32 SSW 15 24 29.98 1015 10 16.0934 0 0
9:52 pm 21:52 Mostly Clear 68 20 40 4.4 36 36 S 14 22 29.98 1015 10 16.0934 0 0
10:52 pm 22:52 Partly Cloudy 68 20 40 4.4 36 36 SSW 16 26 29.97 1015 10 16.0934 0 0
11:52 pm 23:52 Partly Cloudy 67 19.4 41 5 39 39 SSW 15 24 29.96 1015 10 16.0934 0 0

Powered by AerisWeather